Wind_Speed
12 12 15 18 16 17 10 11 16 14 4 11 15 13 12 10 10 12 12 13 17 20 17 20 20 20 18 17 14 12 12 10 9 4 7 10 9 7 6 6 4 4 7 14
11 17 18 6 11 11 16 16 19 16 9 10 13 12 14 14 12 11 13 14 16 17 16 18 21 21 21 16 13 16 17 14 15 9 26 13 5 4 7 7 6 6 7 11
20 18 9 11 13 15 17 18 17 17 11 10 14 16 15 11 6 8 10 10 15 17 18 18 18 21 22 19 17 18 17 10 10 11 12 10 3 4 8 9 8 8 8 11
17 19 11 12 15 15 17 14 14 17 17 15 10 12 7 7 9 5 3 8 12 16 17 17 18 20 20 21 19 8 6 2 5 12 12 13 7 7 8 10 9 8 9 9
16 13 14 19 20 14 15 6 9 12 14 16 16 9 14 4 9 7 5 4 7 13 15 17 18 19 21 24 22 16 16 14 21 22 20 17 12 9 9 10 10 10 9 10
20 6 10 16 15 14 6 8 10 9 13 15 20 12 14 11 2 6 2 7 8 6 8 13 16 25 27 30 34 29 28 35 14 18 17 17 14 10 9 11 11 10 9 10
17 17 14 10 11 12 10 13 10 11 11 14 5 8 13 12 6 8 9 10 8 2 7 11 15 22 29 33 29 13 24 25 5 14 14 13 9 6 9 10 11 10 8 8
18 17 20 16 20 15 18 16 11 13 12 12 7 9 11 2 4 5 6 6 3 5 9 11 17 23 24 30 21 21 32 16 5 6 13 10 6 4 6 6 8 9 8 5
12 18 4 14 17 18 13 10 15 13 10 9 9 6 7 13 10 11 5 3 6 8 10 12 14 19 21 24 19 17 19 7 2 1 7 8 9 8 4 3 4 6 10 13
14 12 10 10 9 7 14 8 10 10 16 10 10 7 9 9 9 5 2 5 7 9 11 12 10 18 20 22 17 13 15 10 4 4 7 9 8 6 3 3 6 9 10 14
14 10 10 9 12 14 12 13 12 11 5 9 9 7 4 4 7 8 5 6 8 10 11 12 12 14 14 13 14 17 15 8 2 7 7 7 7 7 6 7 8 10 12 12
19 11 14 14 6 4 9 16 20 12 14 12 10 11 7 5 4 4 4 4 7 8 9 10 12 13 11 7 8 11 15 11 11 8 7 7 8 10 9 9 9 9 10 10
10 13 13 17 9 7 11 13 11 10 8 12 10 7 5 8 8 5 1 6 7 7 9 9 9 10 14 13 13 15 17 16 14 13 11 11 11 11 9 8 8 9 10 10
4 7 14 15 17 15 19 17 14 14 11 13 13 6 9 10 11 10 2 3 7 9 8 8 8 9 16 16 16 13 16 17 16 14 12 13 14 12 10 9 9 8 8 8
5 7 9 15 9 8 12 19 15 16 18 10 10 8 8 9 12 9 5 3 7 9 9 7 8 10 13 15 20 18 18 20 20 17 15 14 14 12 10 10 10 9 8 8
1 2 4 7 7 11 12 10 13 14 6 6 5 11 8 6 8 10 10 2 7 9 11 8 7 10 13 18 21 21 20 20 22 22 19 17 16 15 13 11 11 9 8 8
1 1 5 7 5 9 11 3 9 6 3 3 7 7 6 7 8 12 10 8 3 6 7 9 8 9 14 17 19 21 18 17 20 21 22 20 19 16 14 13 12 9 7 10
2 1 3 1 7 12 8 4 2 6 5 4 6 5 6 7 4 10 11 10 8 3 6 8 8 14 14 15 15 12 13 16 19 20 20 20 20 18 15 13 12 9 11 12
2 5 3 6 9 4 5 4 3 5 8 6 5 7 9 9 3 9 15 12 11 10 10 9 8 14 18 20 15 13 15 17 20 22 22 24 23 20 18 16 15 12 13 12
3 4 7 4 10 10 10 5 1 3 7 6 6 8 10 10 7 10 15 14 11 9 9 11 9 7 10 17 19 18 18 19 21 20 19 21 24 24 21 19 17 16 14 13
3 4 11 9 9 4 4 3 3 9 4 6 7 8 9 7 7 10 12 13 12 11 12 10 5 3 5 10 14 15 15 18 18 17 18 22 21 20 20 19 18 17 16 14
4 4 5 5 8 8 3 4 4 5 2 6 7 9 8 8 9 12 13 13 12 12 9 10 11 12 5 4 8 10 12 11 12 15 19 22 22 22 21 19 18 17 18 17
3 4 3 5 4 6 7 8 5 5 5 8 8 8 9 10 11 12 13 14 12 14 15 13 10 8 5 5 5 10 10 10 10 15 18 21 21 20 19 21 21 19 17 17
3 1 2 5 5 7 7 7 6 7 7 7 8 8 8 10 12 11 10 11 11 13 12 13 12 12 12 10 9 10 10 9 11 15 17 18 19 19 18 18 19 18 16 16
5 5 3 10 8 8 6 6 5 6 5 6 6 7 8 9 9 11 11 9 11 14 13 11 9 8 8 6 10 11 10 12 14 17 16 17 19 18 15 17 16 15 14 15
1 5 3 4 6 6 7 6 4 5 6 7 8 8 8 8 9 10 10 11 13 12 12 10 10 9 6 3 3 4 6 8 13 16 16 16 14 11 9 9 6 9 11 11
Wind_Direction
201 234 229 242 239 263 305 271 270 272 252 281 281 288 290 293 239 244 232 209 215 217 211 201 192 196 207 205 196 187 176 176 168 176 274 273 261 254 253 253 237 215 202 202
208 231 244 263 274 252 253 260 263 265 285 261 273 289 293 288 276 256 244 214 227 223 209 195 187 191 201 195 180 163 161 186 176 188 255 264 270 256 249 240 221 204 190 190
231 239 238 213 230 240 245 257 270 270 258 264 279 276 262 268 267 277 259 236 214 228 216 199 189 191 189 174 163 174 176 183 192 214 193 223 251 247 242 239 224 214 200 196
240 242 201 219 237 237 251 249 256 261 258 256 214 273 269 259 302 278 259 214 227 221 223 208 190 189 181 154 155 126 26 160 221 223 212 213 223 241 250 246 235 211 203 201
224 218 227 238 239 234 254 276 274 280 262 254 242 257 273 205 270 292 61 32 282 229 215 205 199 175 148 153 137 106 45 281 254 225 226 219 212 220 240 239 233 224 200 201
255 178 241 241 237 225 234 245 243 256 250 236 244 241 264 265 286 319 291 329 310 312 202 203 192 150 153 162 160 165 168 226 241 225 228 206 194 200 223 228 221 224 214 201
223 225 220 235 230 193 218 241 240 221 220 243 213 227 263 307 282 284 314 326 354 118 156 172 145 148 167 175 177 193 195 212 217 220 209 174 173 195 216 227 224 223 207 197
219 226 217 210 231 225 211 236 249 254 250 236 169 246 259 20 274 246 294 350 29 136 130 150 156 165 179 188 188 197 195 178 163 186 205 173 175 205 230 224 221 218 225 210
230 231 187 224 216 222 218 232 253 271 254 278 269 203 247 244 256 250 277 64 95 116 135 146 160 160 187 194 207 211 202 170 2 321 225 154 178 181 220 244 234 197 195 184
220 244 192 171 188 216 256 230 211 229 262 251 253 246 269 287 276 336 132 112 123 133 137 140 142 153 189 194 204 218 205 215 300 238 190 143 165 158 155 141 119 149 154 156
226 224 179 178 206 210 196 227 240 289 291 277 263 261 89 284 337 24 54 99 125 130 139 143 153 164 171 186 203 213 205 223 263 193 155 153 145 122 145 146 135 146 148 154
216 220 236 205 186 287 236 222 215 228 214 240 284 282 16 34 17 38 86 117 123 133 133 134 149 165 162 164 169 198 187 187 185 167 147 154 121 125 145 156 148 153 146 152
174 224 227 238 198 204 232 230 239 244 281 261 263 239 80 42 41 50 67 147 152 145 141 149 167 166 152 147 145 159 165 168 166 163 166 150 144 144 157 163 154 152 152 153
210 237 234 236 232 215 204 226 217 223 226 232 221 173 47 19 22 33 30 190 177 183 167 172 178 166 149 153 152 158 159 166 171 163 169 162 158 161 159 160 155 159 161 163
201 242 232 255 272 258 217 217 205 215 233 261 252 132 37 2 6 21 44 157 188 200 193 179 180 170 167 168 171 173 176 176 168 167 176 168 164 167 161 165 165 163 172 173
192 244 249 218 232 224 220 236 196 209 221 228 217 114 36 17 11 36 44 107 195 217 215 186 190 177 178 172 171 175 184 180 175 171 173 173 172 172 171 172 169 168 179 191
316 296 230 199 209 172 174 162 194 144 170 278 201 60 5 25 24 32 29 27 322 233 234 220 206 199 189 191 189 192 186 176 177 177 168 173 176 177 174 171 169 167 203 207
290 298 272 114 188 215 71 117 273 126 108 73 92 52 22 12 12 44 29 14 6 343 276 247 228 214 211 204 201 195 182 178 179 186 172 173 172 178 175 174 170 173 208 214
272 270 204 246 229 93 154 158 172 218 116 46 29 22 9 352 132 87 22 19 353 340 328 306 264 236 215 210 202 190 185 186 195 190 180 180 173 180 178 180 172 185 205 213
163 245 254 198 254 229 77 114 10 279 164 49 23 21 3 344 259 52 359 359 355 353 330 306 288 235 215 209 200 199 195 193 203 196 191 189 179 179 183 183 179 186 207 212
195 227 229 219 244 106 50 323 235 217 80 38 28 25 14 18 4 333 345 353 353 6 11 1 334 276 229 206 199 203 202 205 211 191 189 195 189 190 183 188 183 191 203 216
255 243 193 239 242 217 25 137 275 34 58 20 19 18 360 355 356 355 345 344 342 340 358 8 12 2 330 221 212 223 226 225 207 193 195 200 195 194 189 189 196 198 207 214
228 339 3 340 50 80 64 74 72 29 30 28 24 26 14 10 3 349 340 331 332 335 334 334 335 341 357 349 265 257 260 249 230 208 204 203 204 203 200 198 201 206 211 226
128 96 124 194 107 97 91 88 69 54 41 31 31 24 19 0 360 356 347 341 331 328 325 318 324 323 318 313 300 287 276 260 240 228 211 212 211 203 209 214 214 204 203 216
33 170 112 98 117 117 94 70 53 57 45 29 20 14 3 13 353 353 356 349 342 328 321 316 304 309 320 327 315 311 287 251 238 233 213 210 207 206 208 223 220 223 224 226
223 122 148 82 87 68 87 88 69 55 33 13 353 347 352 11 347 355 1 350 352 350 338 329 309 308 304 307 320 314 292 257 238 235 209 200 186 164 197 209 245 228 229 236
Height
764 777 781 768 760 760 766 775 777 761 749 760 754 750 739 730 730 738 738 745 747 746 750 758 768 775 779 782 786 790 790 793 797 801 805 807 803 802 803 804 804 803 804 806
770 779 758 757 762 769 770 776 773 756 748 757 750 752 736 728 725 724 728 735 740 742 745 750 759 766 772 778 784 787 785 783 783 789 788 808 801 798 801 802 802 803 803 806
771 758 749 765 769 775 770 773 770 768 751 751 755 759 742 725 718 719 720 722 726 734 736 742 752 760 766 775 787 790 784 784 779 788 795 800 795 796 799 800 800 801 802 804
758 745 759 768 770 764 778 753 760 765 767 781 745 781 744 732 728 717 715 717 721 724 729 734 745 755 764 781 789 800 801 795 786 787 789 790 789 792 796 798 799 800 802 803
760 758 764 768 761 755 767 749 760 761 765 765 760 773 750 732 739 722 720 721 717 715 724 732 738 752 766 781 785 784 788 794 779 779 782 784 786 790 793 795 798 799 800 802
746 735 745 748 744 747 748 759 759 760 759 778 759 759 755 736 731 722 719 716 716 719 722 727 738 750 766 771 767 762 743 770 771 781 783 781 783 785 789 793 795 797 799 800
751 749 741 742 755 747 756 764 785 788 780 781 743 762 749 724 720 723 724 721 717 719 723 729 738 753 761 765 766 772 771 771 778 784 784 781 784 785 788 791 794 795 797 798
762 768 744 735 747 752 755 756 774 797 781 763 754 769 746 721 716 717 720 721 719 721 726 734 742 755 763 766 768 766 760 778 781 783 784 779 782 785 788 790 792 794 797 799
749 752 726 728 729 736 748 767 739 759 751 765 743 733 724 713 715 715 719 725 726 728 731 737 742 750 761 765 765 767 771 776 781 780 783 777 781 783 785 787 790 792 795 798
729 754 728 728 727 731 739 728 764 755 785 788 755 754 749 728 719 711 722 727 731 732 736 740 744 751 757 759 764 767 772 775 777 779 782 780 783 783 785 788 788 791 795 797
721 739 737 732 742 739 746 750 745 737 748 765 770 751 710 720 718 724 725 728 732 733 735 739 748 751 754 758 763 767 771 776 779 782 781 783 783 782 788 790 790 793 795 798
720 732 748 739 715 716 716 730 734 756 765 750 754 749 717 720 723 725 726 729 731 733 735 741 746 752 754 759 764 768 770 775 779 781 782 784 784 785 790 792 793 795 796 799
720 736 752 745 730 729 735 728 729 731 740 749 760 743 720 721 723 727 730 728 734 735 739 745 748 750 753 760 763 766 770 774 777 778 781 781 784 787 792 794 794 796 797 799
727 726 737 738 730 713 734 727 725 733 745 740 738 734 733 733 734 731 730 731 732 735 736 741 746 750 755 759 763 766 766 769 774 775 780 782 783 787 789 792 793 797 798 799
722 740 728 720 720 713 714 717 722 733 727 736 721 726 743 740 740 736 733 731 734 735 735 738 742 747 752 756 759 762 766 767 766 772 778 779 782 786 788 790 792 794 798 800
725 734 731 731 721 717 723 715 717 720 722 726 721 742 736 736 734 735 734 733 734 733 732 735 739 743 747 750 754 757 760 761 763 767 772 777 781 783 785 787 790 794 797 799
732 731 737 735 725 723 741 731 720 727 729 726 732 743 738 738 740 740 738 735 734 731 731 731 738 741 743 747 750 754 758 763 764 766 767 773 777 781 782 785 788 791 797 800
737 739 736 735 735 760 742 726 723 728 739 736 736 742 740 739 736 736 740 740 737 734 733 732 734 739 743 745 748 751 756 759 762 768 767 768 771 775 779 782 784 789 796 800
734 736 739 746 740 744 742 739 735 731 745 742 742 740 739 735 735 738 741 743 744 742 740 736 734 734 737 741 745 749 752 755 758 759 758 761 763 770 774 778 779 788 794 797
737 739 740 740 750 759 732 740 740 738 747 745 746 746 746 735 733 740 747 745 746 746 745 742 733 733 735 738 742 745 746 749 752 754 758 762 761 763 771 775 778 783 790 791
740 742 745 741 746 743 747 745 743 757 761 751 750 752 753 751 755 753 748 748 746 745 744 742 736 735 736 739 742 744 745 746 750 751 755 760 762 767 768 774 775 779 783 787
745 746 745 745 750 758 751 750 755 761 754 753 754 756 759 758 754 753 752 752 749 745 744 745 742 739 737 740 743 744 746 749 750 751 755 758 760 763 765 768 773 775 779 783
759 749 741 754 752 757 754 759 761 760 758 759 759 760 760 758 759 758 757 755 752 751 748 745 743 742 743 743 744 745 746 748 749 750 752 754 758 761 762 763 767 772 775 776
749 748 745 753 758 758 758 759 760 762 763 762 762 762 763 764 763 764 761 759 754 751 749 748 744 742 741 743 745 746 747 747 749 750 751 754 758 757 760 764 767 767 769 770
742 747 752 756 756 758 760 761 763 763 764 763 763 764 765 767 763 761 759 761 758 753 749 746 745 744 745 745 744 744 744 745 746 747 748 751 752 756 758 763 764 763 765 765
743 752 751 754 756 757 764 765 765 765 765 765 765 763 763 763 762 762 761 760 758 755 752 747 744 743 743 744 744 744 743 742 742 742 743 746 749 750 754 759 761 761 761 762